WLF1237 EPKK-EDDF

Flight info

Callsign WLF1237
Flight time N/A
Altitude 28000
Route ADADO M992 UTEVO/N0427F340 DCT RAPET T170 VAGAB/N0361F240 T170 GAPLA T178 KERAX KERAX5A
Aircraft A320/M-SDE3FGHIRWY/LB1

Departure

Time 2026-05-07 14:11
Airport Kraków John Paul II International Airport (EPKK)

Arrival

Time N/A
Airport Frankfurt Main Airport (EDDF)
Time Latitude Longitude Altitude Speed Heading
2026-05-07 13:49 50.07608 19.80290 800 ft 0 kts 348°
2026-05-07 14:08 50.07609 19.80290 800 ft 1 kts 348°
2026-05-07 14:08 50.07621 19.80286 800 ft 3 kts 348°
2026-05-07 14:08 50.07651 19.80281 800 ft 5 kts
2026-05-07 14:09 50.07672 19.80330 800 ft 7 kts 88°
2026-05-07 14:09 50.07702 19.80382 800 ft 8 kts
2026-05-07 14:09 50.07764 19.80355 800 ft 10 kts 343°
2026-05-07 14:09 50.07826 19.80336 800 ft 8 kts 352°
2026-05-07 14:10 50.07886 19.80324 800 ft 10 kts 352°
2026-05-07 14:10 50.07963 19.80305 800 ft 13 kts 349°
2026-05-07 14:10 50.08013 19.80202 800 ft 14 kts 265°
2026-05-07 14:10 50.07981 19.80006 801 ft 38 kts 257°
2026-05-07 14:11 50.07872 19.79219 800 ft 106 kts 258°
2026-05-07 14:11 50.07679 19.77829 802 ft 155 kts 259°
2026-05-07 14:11 50.07448 19.76124 1352 ft 158 kts 261°
2026-05-07 14:11 50.07230 19.74499 2146 ft 154 kts 257°
2026-05-07 14:12 50.06997 19.72844 2794 ft 159 kts 257°
2026-05-07 14:12 50.06745 19.71067 3119 ft 181 kts 257°
2026-05-07 14:12 50.06456 19.69028 3412 ft 204 kts 257°
2026-05-07 14:12 50.06241 19.67516 3618 ft 221 kts 257°
2026-05-07 14:13 50.05772 19.64198 4413 ft 248 kts 257°
2026-05-07 14:13 50.05518 19.62399 5005 ft 254 kts 257°
2026-05-07 14:13 50.05135 19.59695 6008 ft 258 kts 257°
2026-05-07 14:13 50.04620 19.56067 7278 ft 262 kts 256°
2026-05-07 14:14 50.04353 19.54183 7898 ft 265 kts 256°
2026-05-07 14:14 50.03952 19.51355 8832 ft 269 kts 256°
2026-05-07 14:14 50.03546 19.48500 9775 ft 272 kts 256°
2026-05-07 14:14 50.03129 19.45571 10356 ft 288 kts 256°
2026-05-07 14:15 50.02756 19.42387 10728 ft 309 kts 263°
2026-05-07 14:15 50.02804 19.38996 11398 ft 319 kts 275°
2026-05-07 14:15 50.03157 19.35554 12165 ft 325 kts 276°
2026-05-07 14:15 50.03515 19.32058 12948 ft 329 kts 276°
2026-05-07 14:16 50.03872 19.28520 13731 ft 333 kts 275°
2026-05-07 14:16 50.04229 19.24929 14427 ft 338 kts 275°
2026-05-07 14:16 50.04585 19.21302 14816 ft 341 kts 275°
2026-05-07 14:16 50.04943 19.17651 14921 ft 341 kts 275°
2026-05-07 14:17 50.05300 19.14011 14936 ft 340 kts 275°
2026-05-07 14:17 50.05660 19.10373 14935 ft 340 kts 275°
2026-05-07 14:17 50.06016 19.06799 14936 ft 340 kts 275°
2026-05-07 14:17 50.06377 19.03155 14936 ft 340 kts 275°
2026-05-07 14:18 50.06735 18.99500 15197 ft 344 kts 275°
2026-05-07 14:18 50.07092 18.95827 15951 ft 345 kts 275°
2026-05-07 14:18 50.07450 18.92120 16688 ft 347 kts 274°
2026-05-07 14:18 50.07810 18.88391 17400 ft 350 kts 274°
2026-05-07 14:19 50.08170 18.84623 18096 ft 353 kts 274°
2026-05-07 14:19 50.08533 18.80826 18720 ft 356 kts 274°
2026-05-07 14:19 50.08882 18.77008 19370 ft 357 kts 273°
2026-05-07 14:19 50.09180 18.73155 20029 ft 359 kts 271°
2026-05-07 14:20 50.09414 18.69287 20717 ft 360 kts 270°
2026-05-07 14:20 50.09665 18.65415 21512 ft 358 kts 270°
2026-05-07 14:20 50.09975 18.61563 22317 ft 357 kts 271°
2026-05-07 14:20 50.10307 18.57751 23136 ft 356 kts 271°
2026-05-07 14:21 50.10672 18.53942 23899 ft 353 kts 270°
2026-05-07 14:21 50.10963 18.50174 24603 ft 349 kts 269°
2026-05-07 14:21 50.11164 18.46440 25315 ft 343 kts 265°
2026-05-07 14:21 50.11179 18.42777 26042 ft 334 kts 260°
2026-05-07 14:22 50.11216 18.39150 26714 ft 337 kts 268°
2026-05-07 14:22 50.11591 18.35517 27395 ft 343 kts 275°
2026-05-07 14:22 50.12219 18.31938 28125 ft 342 kts 278°
2026-05-07 14:22 50.12884 18.28402 28853 ft 338 kts 279°
2026-05-07 14:23 50.13643 18.24934 29583 ft 336 kts 282°
2026-05-07 14:23 50.14508 18.21550 30302 ft 334 kts 284°
2026-05-07 14:23 50.15379 18.18255 30972 ft 323 kts 279°
2026-05-07 14:23 50.15988 18.14963 31666 ft 309 kts 273°
2026-05-07 14:24 50.16364 18.11746 32357 ft 294 kts 268°
2026-05-07 14:24 50.16542 18.08645 33037 ft 281 kts 264°
2026-05-07 14:24 50.16674 18.05652 33707 ft 271 kts 264°
2026-05-07 14:24 50.16818 18.02771 34154 ft 269 kts 266°
2026-05-07 14:25 50.17093 17.99760 33952 ft 291 kts 271°
2026-05-07 14:25 50.17528 17.96577 33838 ft 310 kts 274°
2026-05-07 14:25 50.18112 17.93267 33974 ft 319 kts 278°
2026-05-07 14:25 50.18806 17.90055 34678 ft 306 kts 280°
2026-05-07 14:26 50.19534 17.86973 35075 ft 304 kts 281°
2026-05-07 14:26 50.20312 17.83840 35045 ft 316 kts 282°
2026-05-07 14:26 50.21152 17.80593 35056 ft 326 kts 283°